Weather History for Creston, IA

Change the Weather History Date:

Tuesday, October 9, 2012

  Actual Average Record
Temperature  
Mean Temperature 46 °F -  
Max Temperature 57 °F 64 °F 84 °F (1980)
Min Temperature 35 °F 42 °F -99 °F (1999)
Degree Days  
Heating Degree Days 19    
Moisture  
Dew Point 32 °F    
Average Humidity 54    
Maximum Humidity 70    
Minimum Humidity 32    
Precipitation  
Precipitation 0.00 in - - ()
Sea Level Pressure  
Sea Level Pressure 29.94 in    
Wind  
Wind Speed 11 mph (West)    
Max Wind Speed 18 mph    
Max Gust Speed 23 mph    
Visibility 10 miles    
Events      
Averages and records for this station are not official NWS values.
T = Trace of Precipitation, MM = Missing Value Source: NWS Daily Summary

Daily Weather History Graph

Daily Weather History Graph

Search for Another Location

Airport:

Trip Planner

Search our weather history database for the weather conditions in past years. The results will help you decide how hot, cold, wet, or windy it might be!

Date:

Astronomy

Oct. 09, 2012 Rise Set
Actual Time 7:22 AM CDT 6:45 PM CDT
Civil Twilight 6:55 AM CDT 7:12 PM CDT
Nautical Twilight 6:23 AM CDT 7:44 PM CDT
Astronomical Twilight 5:51 AM CDT 8:16 PM CDT
Moon 12:57 AM CDT (10/9) 3:15 PM CDT (10/9)
Length of Visible Light 12h 17m
Length of Day
11h 22m
Last Quarter, 36% of the Moon is Illuminated
Oct 9
Last Quarter
Oct 15
New
Oct 21
First Quarter
Oct 29
Full
Nov 6
Last Quarter

Hourly Weather History & Observations

Time (CDT) Temp. Windchill Dew Point Humidity Pressure Visibility Wind Dir Wind Speed Gust Speed Precip Events Conditions
12:15 AM 50.0 °F - 33.8 °F 54% 29.86 in 10.0 mi South 15.0 mph - N/A   Clear
12:35 AM 48.2 °F - 33.8 °F 58% 29.86 in 10.0 mi South 15.0 mph - N/A   Clear
12:55 AM 48.2 °F - 33.8 °F 58% 29.86 in 10.0 mi South 15.0 mph - N/A   Clear
1:15 AM 48.2 °F - 33.8 °F 58% 29.86 in 10.0 mi South 12.7 mph - N/A   Clear
1:55 AM 48.2 °F - 33.8 °F 58% 29.88 in 10.0 mi SSW 10.4 mph - N/A   Clear
2:15 AM 48.2 °F - 33.8 °F 58% 29.88 in 10.0 mi SSW 11.5 mph - N/A   Clear
3:15 AM 46.4 °F 42.9 °F 33.8 °F 62% 29.87 in 10.0 mi South 6.9 mph - N/A   Clear
3:35 AM 46.4 °F 42.4 °F 35.6 °F 66% 29.86 in 10.0 mi South 8.1 mph - N/A   Clear
3:55 AM 48.2 °F - 35.6 °F 62% 29.86 in 10.0 mi SSW 6.9 mph - N/A   Clear
4:15 AM 50.0 °F - 35.6 °F 58% 29.86 in 10.0 mi SSW 9.2 mph - N/A   Clear
4:35 AM 50.0 °F - 35.6 °F 58% 29.85 in 10.0 mi SSW 12.7 mph - N/A   Clear
4:55 AM 50.0 °F - 35.6 °F 58% 29.86 in 10.0 mi SSW 12.7 mph - N/A   Clear
5:15 AM 50.0 °F - 35.6 °F 58% 29.85 in 10.0 mi SSW 15.0 mph 19.6 mph N/A   Clear
5:35 AM 50.0 °F - 35.6 °F 58% 29.84 in 10.0 mi SSW 15.0 mph 20.7 mph N/A   Clear
5:55 AM 50.0 °F - 35.6 °F 58% 29.84 in 10.0 mi SSW 12.7 mph - N/A   Clear
6:15 AM 50.0 °F - 35.6 °F 58% 29.84 in 10.0 mi SSW 12.7 mph - N/A   Clear
6:35 AM 50.0 °F - 35.6 °F 58% 29.84 in 10.0 mi SSW 13.8 mph - N/A   Clear
6:55 AM 50.0 °F - 35.6 °F 58% 29.85 in 10.0 mi SSW 11.5 mph 17.3 mph N/A   Clear
7:15 AM 50.0 °F - 35.6 °F 58% 29.85 in 10.0 mi SW 9.2 mph - N/A   Clear
7:35 AM 48.2 °F - 35.6 °F 62% 29.86 in 10.0 mi SW 9.2 mph - N/A   Clear
7:55 AM 48.2 °F - 35.6 °F 62% 29.87 in 10.0 mi SW 8.1 mph - N/A   Clear
8:15 AM 48.2 °F - 35.6 °F 62% 29.87 in 10.0 mi WSW 8.1 mph - N/A   Clear
8:35 AM 50.0 °F - 35.6 °F 58% 29.87 in 10.0 mi Calm Calm - N/A   Clear
8:55 AM 50.0 °F - 35.6 °F 58% 29.87 in 10.0 mi WSW 12.7 mph - N/A   Clear
9:15 AM 51.8 °F - 35.6 °F 54% 29.87 in 10.0 mi WSW 10.4 mph - N/A   Clear
9:35 AM 53.6 °F - 35.6 °F 51% 29.88 in 10.0 mi WSW 12.7 mph - N/A   Clear
9:55 AM 53.6 °F - 35.6 °F 51% 29.88 in 10.0 mi WSW 12.7 mph - N/A   Clear
10:15 AM 53.6 °F - 35.6 °F 51% 29.89 in 10.0 mi West 13.8 mph - N/A   Clear
10:35 AM 55.4 °F - 35.6 °F 47% 29.89 in 10.0 mi West 10.4 mph - N/A   Clear
10:55 AM 55.4 °F - 35.6 °F 47% 29.89 in 10.0 mi West 6.9 mph - N/A   Clear
11:15 AM 55.4 °F - 35.6 °F 47% 29.90 in 10.0 mi West 8.1 mph - N/A   Clear
11:35 AM 55.4 °F - 37.4 °F 51% 29.90 in 10.0 mi NNW 9.2 mph - N/A   Clear
11:55 AM 57.2 °F - 37.4 °F 48% 29.90 in 10.0 mi North 12.7 mph - N/A   Clear
12:15 PM 57.2 °F - 39.2 °F 51% 29.91 in 10.0 mi NNW 13.8 mph 20.7 mph N/A   Mostly Cloudy
12:35 PM 55.4 °F - 39.2 °F 54% 29.92 in 10.0 mi NNW 15.0 mph 23.0 mph N/A   Overcast
12:55 PM 55.4 °F - 39.2 °F 54% 29.92 in 10.0 mi North 15.0 mph 23.0 mph N/A   Overcast
1:15 PM 55.4 °F - 39.2 °F 54% 29.94 in 10.0 mi NNW 15.0 mph 23.0 mph N/A   Overcast
1:35 PM 53.6 °F - 37.4 °F 54% 29.95 in 10.0 mi NNW 18.4 mph - N/A   Overcast
1:55 PM 53.6 °F - 37.4 °F 54% 29.95 in 10.0 mi NNW 12.7 mph - N/A   Overcast
2:15 PM 53.6 °F - 37.4 °F 54% 29.95 in 10.0 mi NNW 11.5 mph - N/A   Overcast
2:35 PM 51.8 °F - 35.6 °F 54% 29.95 in 10.0 mi NNW 15.0 mph 21.9 mph N/A   Overcast
2:55 PM 51.8 °F - 35.6 °F 54% 29.96 in 10.0 mi North 15.0 mph 21.9 mph N/A   Mostly Cloudy
3:15 PM 50.0 °F - 32.0 °F 50% 29.97 in 10.0 mi North 13.8 mph - N/A   Mostly Cloudy
3:35 PM 50.0 °F - 30.2 °F 47% 29.97 in 10.0 mi North 12.7 mph - N/A   Mostly Cloudy
3:55 PM 51.8 °F - 30.2 °F 44% 29.97 in 10.0 mi NNW 10.4 mph - N/A   Mostly Cloudy
4:15 PM 48.2 °F - 32.0 °F 54% 29.98 in 10.0 mi NNW 10.4 mph - N/A   Mostly Cloudy
4:35 PM 48.2 °F - 33.8 °F 58% 29.98 in 10.0 mi NW 5.8 mph - N/A   Overcast
4:55 PM 48.2 °F - 33.8 °F 58% 29.98 in 10.0 mi West 6.9 mph - N/A   Scattered Clouds
5:15 PM 50.0 °F - 35.6 °F 58% 29.98 in 2.0 mi NW 11.5 mph - N/A   Haze
5:35 PM 48.2 °F - 19.4 °F 32% 29.98 in 10.0 mi NW 12.7 mph - N/A   Clear
5:55 PM 48.2 °F - 19.4 °F 32% 29.99 in 10.0 mi NW 11.5 mph - N/A   Scattered Clouds
6:15 PM 48.2 °F - 21.2 °F 34% 30.00 in 10.0 mi NW 9.2 mph - N/A   Scattered Clouds
6:35 PM 46.4 °F 42.9 °F 21.2 °F 37% 30.00 in 10.0 mi WNW 6.9 mph - N/A   Clear
6:55 PM 46.4 °F 42.4 °F 23.0 °F 40% 30.01 in 10.0 mi WNW 8.1 mph - N/A   Clear
7:15 PM 46.4 °F 42.4 °F 24.8 °F 43% 30.01 in 10.0 mi West 8.1 mph - N/A   Clear
7:35 PM 42.8 °F 38.6 °F 24.8 °F 49% 30.02 in 10.0 mi West 6.9 mph - N/A   Clear
7:55 PM 42.8 °F 38.6 °F 24.8 °F 49% 30.03 in 10.0 mi West 6.9 mph - N/A   Clear
8:15 PM 42.8 °F 39.3 °F 24.8 °F 49% 30.03 in 10.0 mi West 5.8 mph - N/A   Clear
8:35 PM 39.2 °F 33.6 °F 24.8 °F 56% 30.05 in 10.0 mi WNW 8.1 mph - N/A   Clear
8:55 PM 37.4 °F 30.8 °F 24.8 °F 60% 30.06 in 10.0 mi NW 9.2 mph - N/A   Clear
9:15 PM 37.4 °F 32.1 °F 24.8 °F 60% 30.07 in 10.0 mi NW 6.9 mph - N/A   Clear
9:35 PM 42.8 °F 35.8 °F 24.8 °F 49% 30.09 in 10.0 mi NNW 13.8 mph 18.4 mph N/A   Clear
9:55 PM 41.0 °F 34.7 °F 26.6 °F 57% 30.09 in 10.0 mi NNW 10.4 mph - N/A   Clear
10:15 PM 41.0 °F 35.8 °F 26.6 °F 57% 30.10 in 10.0 mi NNW 8.1 mph - N/A   Clear
10:35 PM 39.2 °F 34.2 °F 26.6 °F 61% 30.10 in 10.0 mi NNW 6.9 mph - N/A   Clear
10:55 PM 37.4 °F 32.1 °F 26.6 °F 65% 30.11 in 10.0 mi NNW 6.9 mph - N/A   Clear
11:15 PM 35.6 °F 30.7 °F 26.6 °F 70% 30.12 in 10.0 mi NW 5.8 mph - N/A   Clear
11:35 PM 35.6 °F - 24.8 °F 65% 30.12 in 10.0 mi Calm Calm - N/A   Clear
11:55 PM 35.6 °F - 24.8 °F 65% 30.12 in 10.0 mi Calm Calm - N/A   Clear